Hourly Weather Barlewice

Today, 6 May, Thursday

Time Temperature Precipitation Wind Pressure Humidity
00:00 +4°C° 0 mm 7 mps 744 mmHg 83%
01:00 +4°C° 0 mm 8 mps 744 mmHg 85%
02:00 +4°C° 0 mm 8 mps 744 mmHg 82%
03:00 +3°C° 0 mm 9 mps 745 mmHg 79%
04:00 +2°C° 0 mm 9 mps 745 mmHg 75%
05:00 +3°C° 0 mm 9 mps 745 mmHg 72%
06:00 +3°C° 0 mm 9 mps 746 mmHg 70%
07:00 +3°C° 0 mm 9 mps 746 mmHg 67%
08:00 +3°C° 0 mm 9 mps 746 mmHg 66%
09:00 +5°C° 0 mm 9 mps 747 mmHg 66%
10:00 +6°C° 0 mm 9 mps 747 mmHg 65%
11:00 +7°C° 0 mm 9 mps 747 mmHg 58%
12:00 +8°C° 0 mm 9 mps 747 mmHg 51%
13:00 +10°C° 0 mm 9 mps 747 mmHg 44%
14:00 +10°C° 0.1 mm 8 mps 747 mmHg 47%
15:00 +10°C° 0.1 mm 7 mps 747 mmHg 50%
16:00 +10°C° 0.1 mm 7 mps 747 mmHg 53%
17:00 +8°C° 0.2 mm 6 mps 747 mmHg 61%
18:00 +7°C° 0.2 mm 5 mps 747 mmHg 69%
19:00 +5°C° 0.2 mm 4 mps 748 mmHg 77%
20:00 +4°C° 0 mm 4 mps 748 mmHg 80%
21:00 +3°C° 0 mm 3 mps 748 mmHg 84%
22:00 +2°C° 0 mm 3 mps 748 mmHg 88%
23:00 +2°C° 0 mm 3 mps 748 mmHg 89%

Tomorrow, 7 May, Friday

Time Temperature Precipitation Wind Pressure Humidity
00:00 +2°C° 0 mm 3 mps 748 mmHg 89%
01:00 +1°C° 0 mm 3 mps 748 mmHg 90%
02:00 +3°C° 0 mm 2 mps 748 mmHg 89%
03:00 +3°C° 0 mm 2 mps 748 mmHg 89%
04:00 +3°C° 0 mm 2 mps 748 mmHg 89%
05:00 +4°C° 0 mm 2 mps 748 mmHg 85%
06:00 +5°C° 0 mm 2 mps 748 mmHg 81%
07:00 +6°C° 0 mm 2 mps 748 mmHg 77%
08:00 +8°C° 0 mm 1 mps 748 mmHg 72%
09:00 +9°C° 0 mm 1 mps 748 mmHg 68%
10:00 +10°C° 0 mm 1 mps 748 mmHg 63%
11:00 +10°C° 0.3 mm 1 mps 748 mmHg 64%
12:00 +9°C° 0.3 mm 2 mps 748 mmHg 65%
13:00 +9°C° 0.3 mm 2 mps 748 mmHg 65%
14:00 +8°C° 0.3 mm 3 mps 748 mmHg 69%
15:00 +8°C° 0.3 mm 3 mps 749 mmHg 72%
16:00 +7°C° 0.3 mm 4 mps 749 mmHg 75%
17:00 +7°C° 0.1 mm 3 mps 749 mmHg 78%
18:00 +5°C° 0.1 mm 3 mps 750 mmHg 80%
19:00 +5°C° 0.1 mm 2 mps 751 mmHg 83%
20:00 +4°C° 0 mm 2 mps 751 mmHg 86%
21:00 +3°C° 0 mm 2 mps 752 mmHg 89%
22:00 +1°C° 0 mm 3 mps 752 mmHg 92%
23:00 +1°C° 0 mm 3 mps 753 mmHg 93%

Day after tomorrow, 8 May, Saturday

Time Temperature Precipitation Wind Pressure Humidity
00:00 +1°C° 0 mm 3 mps 753 mmHg 94%
01:00 +1°C° 0 mm 3 mps 753 mmHg 96%
02:00 +1°C° 0 mm 3 mps 754 mmHg 95%
03:00 +1°C° 0 mm 3 mps 754 mmHg 95%
04:00 +1°C° 0 mm 3 mps 754 mmHg 95%
05:00 +2°C° 0 mm 3 mps 755 mmHg 90%
06:00 +4°C° 0 mm 4 mps 755 mmHg 86%
07:00 +5°C° 0 mm 5 mps 755 mmHg 82%
08:00 +6°C° 0.2 mm 5 mps 755 mmHg 76%
09:00 +7°C° 0.2 mm 5 mps 756 mmHg 70%
10:00 +9°C° 0.2 mm 5 mps 756 mmHg 64%
11:00 +9°C° 0.3 mm 6 mps 756 mmHg 64%
12:00 +9°C° 0.3 mm 6 mps 756 mmHg 63%
13:00 +9°C° 0.3 mm 6 mps 757 mmHg 62%
14:00 +9°C° 0.2 mm 6 mps 757 mmHg 64%
15:00 +9°C° 0.2 mm 5 mps 757 mmHg 66%
16:00 +8°C° 0.2 mm 5 mps 758 mmHg 68%
17:00 +7°C° 0 mm 4 mps 758 mmHg 70%
18:00 +7°C° 0 mm 3 mps 758 mmHg 72%
19:00 +6°C° 0 mm 2 mps 758 mmHg 74%
20:00 +5°C° 0 mm 2 mps 758 mmHg 75%
21:00 +4°C° 0 mm 2 mps 759 mmHg 76%
22:00 +3°C° 0 mm 2 mps 759 mmHg 77%
23:00 +3°C° 0 mm 2 mps 759 mmHg 79%

9 May, Sunday

Time Temperature Precipitation Wind Pressure Humidity
00:00 +3°C° 0 mm 2 mps 759 mmHg 82%
01:00 +2°C° 0 mm 3 mps 759 mmHg 84%
02:00 +2°C° 0 mm 3 mps 759 mmHg 85%
03:00 +2°C° 0 mm 3 mps 758 mmHg 85%
04:00 +1°C° 0 mm 4 mps 758 mmHg 86%
05:00 +4°C° 0 mm 4 mps 758 mmHg 81%
06:00 +5°C° 0 mm 5 mps 758 mmHg 77%
07:00 +7°C° 0 mm 6 mps 758 mmHg 72%
08:00 +9°C° 0 mm 6 mps 757 mmHg 68%
09:00 +11°C° 0 mm 7 mps 757 mmHg 64%
10:00 +14°C° 0 mm 7 mps 757 mmHg 60%
11:00 +14°C° 0 mm 7 mps 756 mmHg 60%
12:00 +15°C° 0 mm 7 mps 756 mmHg 59%
13:00 +16°C° 0 mm 7 mps 756 mmHg 59%
14:00 +16°C° 0 mm 7 mps 756 mmHg 60%
15:00 +17°C° 0 mm 6 mps 756 mmHg 61%
16:00 +17°C° 0 mm 6 mps 756 mmHg 62%
17:00 +16°C° 0 mm 5 mps 756 mmHg 68%
18:00 +15°C° 0 mm 5 mps 756 mmHg 73%
19:00 +14°C° 0 mm 4 mps 755 mmHg 78%
20:00 +13°C° 0 mm 4 mps 756 mmHg 79%
21:00 +13°C° 0 mm 5 mps 756 mmHg 80%
22:00 +12°C° 0 mm 5 mps 756 mmHg 81%
23:00 +10°C° 0 mm 5 mps 756 mmHg 82%

10 May, Monday

Time Temperature Precipitation Wind Pressure Humidity
00:00 +10°C° 0 mm 5 mps 756 mmHg 82%
01:00 +9°C° 0 mm 5 mps 756 mmHg 82%
02:00 +9°C° 0 mm 5 mps 756 mmHg 83%
03:00 +8°C° 0 mm 5 mps 756 mmHg 85%
04:00 +8°C° 0 mm 5 mps 756 mmHg 86%
05:00 +9°C° 0 mm 5 mps 756 mmHg 82%
06:00 +10°C° 0 mm 5 mps 756 mmHg 79%
07:00 +13°C° 0 mm 6 mps 756 mmHg 75%
08:00 +14°C° 0 mm 6 mps 756 mmHg 70%
09:00 +16°C° 0 mm 6 mps 756 mmHg 65%
10:00 +18°C° 0 mm 7 mps 756 mmHg 60%
11:00 +20°C° 0 mm 7 mps 756 mmHg 59%
12:00 +20°C° 0 mm 7 mps 755 mmHg 58%
13:00 +21°C° 0 mm 7 mps 755 mmHg 57%
14:00 +21°C° 0 mm 7 mps 755 mmHg 60%
15:00 +21°C° 0 mm 6 mps 755 mmHg 62%
16:00 +21°C° 0 mm 6 mps 755 mmHg 65%
17:00 +20°C° 0 mm 5 mps 755 mmHg 70%
18:00 +19°C° 0 mm 5 mps 755 mmHg 75%
19:00 +18°C° 0 mm 4 mps 755 mmHg 81%
20:00 +17°C° 0 mm 4 mps 755 mmHg 81%
21:00 +15°C° 0 mm 5 mps 755 mmHg 82%
22:00 +15°C° 0 mm 5 mps 755 mmHg 82%
23:00 +14°C° 0 mm 5 mps 755 mmHg 84%

11 May, Tuesday

Time Temperature Precipitation Wind Pressure Humidity
00:00 +14°C° 0 mm 5 mps 755 mmHg 86%
01:00 +13°C° 0 mm 5 mps 755 mmHg 87%
02:00 +13°C° 0 mm 5 mps 755 mmHg 89%
03:00 +12°C° 0 mm 5 mps 754 mmHg 90%
04:00 +12°C° 0 mm 5 mps 754 mmHg 91%
05:00 +13°C° 0 mm 5 mps 754 mmHg 87%
06:00 +14°C° 0 mm 6 mps 754 mmHg 83%
07:00 +15°C° 0 mm 6 mps 754 mmHg 79%
08:00 +16°C° 0 mm 6 mps 754 mmHg 75%
09:00 +19°C° 0 mm 6 mps 754 mmHg 70%
10:00 +20°C° 0 mm 7 mps 754 mmHg 66%
11:00 +21°C° 0 mm 7 mps 754 mmHg 65%
12:00 +22°C° 0 mm 7 mps 754 mmHg 63%
13:00 +23°C° 0 mm 7 mps 754 mmHg 62%
14:00 +24°C° 0 mm 7 mps 753 mmHg 64%
15:00 +24°C° 0 mm 7 mps 753 mmHg 66%
16:00 +24°C° 0 mm 7 mps 753 mmHg 67%
17:00 +23°C° 0 mm 7 mps 753 mmHg 69%
18:00 +21°C° 0 mm 7 mps 753 mmHg 72%
19:00 +20°C° 0 mm 7 mps 753 mmHg 74%
20:00 +18°C° 0 mm 7 mps 753 mmHg 74%
21:00 +18°C° 0 mm 7 mps 754 mmHg 74%
22:00 +17°C° 0 mm 7 mps 754 mmHg 74%
23:00 +16°C° 0 mm 6 mps 754 mmHg 75%
Show more